Regional Weather Roundup
Issued by NWS

Home | Current Version | Previous Version | Graphics & Text | Print | Product List | Glossary On
Versions: 1 2 3 4 5 6 7 8 9 10 11 12 13 14 15 16 17 18 19 20 21 22 23 24 25 26 27 28 29 30 31 32 33 34 35 36 37 38 39 40 41 42 43 44 45 46 47 48 49 50
000
ASUS43 KTOP 072359
RWRKS

WEATHER ROUNDUP FOR KANSAS
NATIONAL WEATHER SERVICE GOODLAND KS
600 PM CST SUN FEB 07 2016

NOTE:  "FAIR" INDICATES FEW OR NO CLOUDS BELOW 12,000 FEET WITH NO
SIGNIFICANT WEATHER AND/OR OBSTRUCTIONS TO VISIBILITY.

KSZ001>006-013>018-027>032-041>047-080100-
NORTHWEST KANSAS

CITY           SKY/WX    TMP DP  RH WIND       PRES   REMARKS
GOODLAND       CLOUDY    33  17  51 NW24G36   30.28R WCI  20
6HR MIN TEMP:  33; 6HR MAX TEMP:  37;

HAYS           CLEAR     39  18  41 NW20G26   30.20S WCI  30
HILL CITY      CLEAR     37  21  52 NW20G28   30.21R WCI  27
6HR MIN TEMP:  37; 6HR MAX TEMP:  43;

RUSSELL        CLEAR     39  22  50 NW24G30   30.17S WCI  28
6HR MIN TEMP:  39; 6HR MAX TEMP:  47;

$$

KSZ061>065-074>080-084>089-080100-
SOUTHWEST KANSAS

CITY           SKY/WX    TMP DP  RH WIND       PRES   REMARKS
DODGE CITY     CLOUDY    40  14  34 NW23G31   30.27R WCI  30
6HR MIN TEMP:  40; 6HR MAX TEMP:  48;

ELKHART          N/A     41  15  35 N15         N/A
GARDEN CITY    CLOUDY    40  18  41 N21G33    30.29R WCI  30
6HR MIN TEMP:  40; 6HR MAX TEMP:  48;

GREAT BEND     CLEAR     39  21  48 NW17G24   30.21R WCI  30
LIBERAL        CLEAR     43  12  28 N21G30    30.32R
$$

KSZ066>073-081>083-090>101-080100-
SOUTHEAST KANSAS

CITY           SKY/WX    TMP DP  RH WIND       PRES   REMARKS
CHANUTE        CLEAR     48  15  26 NW20G32   30.09R
6HR MIN TEMP:  48; 6HR MAX TEMP:  58;

COFFEYVILLE    PTCLDY    52  18  26 NW18G36   30.10R
6HR MIN TEMP:  49; 6HR MAX TEMP:  60;

HUTCHINSON     CLEAR     44  18  35 NW21G32   30.17R
6HR MIN TEMP:  44; 6HR MAX TEMP:  56;

MEDICINE LODGE   N/A     47   8  20 NW23G37   30.21S
NEWTON         CLEAR     45  19  36 NW20G32   30.15R
PARSONS        PTCLDY    49  12  22 NW15G25   30.10R
6HR MIN TEMP:  49; 6HR MAX TEMP:  60;

WICHITA INTL   PTCLDY    47  19  33 NW24G35   30.15R
6HR MIN TEMP:  47; 6HR MAX TEMP:  57;

WICHITA JABRA  CLEAR     46  16  30 NW23G31   30.14R
6HR MIN TEMP:  46; 6HR MAX TEMP:  56;

WINFIELD       PTCLDY    48  22  35 NW14      30.15F
6HR MIN TEMP:  48; 6HR MAX TEMP:  58;

$$

KSZ007>012-019>026-033>040-048>060-102>105-080100-
NORTHEAST KANSAS

CITY           SKY/WX    TMP DP  RH WIND       PRES   REMARKS
CONCORDIA      CLEAR     41  20  43 NW15G26   30.10R
6HR MIN TEMP:  41; 6HR MAX TEMP:  48;

EMPORIA        CLOUDY    47  14  26 NW22G29   30.08S
6HR MIN TEMP:  47; 6HR MAX TEMP:  54;

LAWRENCE       CLOUDY    46  19  34 NW18G30   30.03F
6HR MIN TEMP:  46; 6HR MAX TEMP:  53;

MANHATTAN      CLOUDY    46  20  35 NW17G31   30.10R
6HR MIN TEMP:  46; 6HR MAX TEMP:  53;

OLATHE IND     CLOUDY    46  17  31 NW16G29   30.02S
6HR MIN TEMP:  46; 6HR MAX TEMP:  52;

OLATHE EXE     CLOUDY    46  14  27 NW22G31   30.01S
6HR MIN TEMP:  46; 6HR MAX TEMP:  52; 6HR PCP: TRACE;

SALINA         CLEAR     46  19  34 NW22G33   30.13S
6HR MIN TEMP:  46; 6HR MAX TEMP:  54;

TOPEKA BILLARD LGT RAIN  47  18  31 NW29G41   30.05R
6HR MIN TEMP:  47; 6HR MAX TEMP:  54; 6HR PCP: TRACE;

TOPEKA FORBES  CLOUDY    47  18  31 NW21G39   30.04S
6HR MIN TEMP:  47; 6HR MAX TEMP:  55;

$$



USA.gov is the U.S. government's official web portal to all federal, state and local government web resources and services.